{"data":{"norad_id":81812,"epoch":"2026-05-23T13:36:05.427936Z","epoch_age_seconds":202862,"freshness":"STALE","line1":"1 81812U          26143.56672949 -.00000228  00000+0 -11023-2 0  9996","line2":"2 81812 103.7782  81.0919 0312656 332.3271  26.1447 12.38881107560590","mean_motion":12.38881107,"eccentricity":0.0312656,"inclination_deg":103.7782,"raan_deg":81.0919,"arg_perigee_deg":332.3271,"mean_anomaly_deg":26.1447,"bstar":-0.0011023,"rev_number":56059,"period_min":116.23391396185,"perigee_km":1264.6802752981,"apogee_km":1758.0193531766,"semimajor_km":7889.4868142374,"source":"CELESTRAK","updated_at":"2026-05-25T13:38:11.084098Z"}}